EW7861 Weather Reports


Display with metric or nautical units.
time (UTC)temp
F
wind
direction
speed
MPH
gust
MPH
rain 1hr
in
rain 24hr
in
rain mn
in
humidity
%
barometer
mb
20260503215133 89 293 6.0 11.0 0.00 0.00 0.00 32
20260503214134 88 293 7.0 10.0 0.00 0.00 0.00 32
20260503213133 88 293 7.0 12.0 0.00 0.00 0.00 32
20260503212133 87 270 6.0 15.0 0.00 0.00 0.00 32
20260503211134 86 293 8.0 15.0 0.00 0.00 0.00 34
20260503210234 86 293 7.0 13.0 0.00 0.00 0.00 34
20260503205134 85 293 7.0 12.0 0.00 0.00 0.00 37
20260503204134 85 293 7.0 13.0 0.00 0.00 0.00 39
20260503203133 84 293 7.0 14.0 0.00 0.00 0.00 40
20260503202137 83 293 8.0 13.0 0.00 0.00 0.00 40
20260503201133 82 293 8.0 14.0 0.00 0.00 0.00 41
20260503200137 82 293 8.0 12.0 0.00 0.00 0.00 42
20260503195157 81 293 7.0 12.0 0.00 0.00 0.00 44
20260503194134 80 293 8.0 13.0 0.00 0.00 0.00 45
20260503193154 79 293 8.0 14.0 0.00 0.00 0.00 46
20260503192134 79 293 8.0 12.0 0.00 0.00 0.00 46
20260503191134 78 293 7.0 12.0 0.00 0.00 0.00 46
20260503190134 77 293 8.0 12.0 0.00 0.00 0.00 48
20260503185154 77 293 7.0 12.0 0.00 0.00 0.00 49
20260503184134 76 293 8.0 13.0 0.00 0.00 0.00 50
20260503183134 76 293 8.0 13.0 0.00 0.00 0.00 50
20260503182134 75 293 7.0 13.0 0.00 0.00 0.00 51
20260503181134 74 293 8.0 13.0 0.00 0.00 0.00 50
20260503180133 74 293 8.0 14.0 0.00 0.00 0.00 50
20260503175133 73 293 7.0 12.0 0.00 0.00 0.00 52
20260503174134 73 293 7.0 11.0 0.00 0.00 0.00 53
20260503173138 72 270 6.0 11.0 0.00 0.00 0.00 53
20260503172134 71 293 7.0 11.0 0.00 0.00 0.00 55
20260503171134 70 270 6.0 12.0 0.00 0.00 0.00 56
20260503170133 69 293 6.0 10.0 0.00 0.00 0.00 60
20260503160134 64 270 2.0 7.0 0.00 0.00 0.00 73
20260503150134 60 270 4.0 10.0 0.00 0.00 0.00 79
20260503140134 59 293 6.0 10.0 0.00 0.00 0.00 81
20260503131134 59 315 3.0 7.0 0.00 0.00 0.00 82
20260503130154 59 315 3.0 6.0 0.00 0.00 0.00 82
20260503120134 59 315 1.0 5.0 0.00 0.00 0.00 81
20260503110139 60 315 3.0 7.0 0.00 0.00 0.00 80
20260503100134 61 293 4.0 8.0 0.00 0.00 0.00 80
20260503090134 61 293 5.0 9.0 0.00 0.00 0.00 80
20260503081134 63 293 7.0 11.0 0.00 0.00 0.00 75
20260503080134 63 293 8.0 11.0 0.00 0.00 0.00 74
20260503072134 62 293 5.0 8.0 0.00 0.00 0.00 79
20260503071134 61 293 2.0 6.0 0.00 0.00 0.00 83
20260503070134 61 293 3.0 5.0 0.00 0.00 0.00 83
20260503060134 63 0.0 0.0 0.00 0.00 0.00 80
20260503054134 64 0.0 0.0 0.00 0.00 0.00 78
20260503053134 64 0.0 0.0 0.00 0.00 0.00 77
20260503052134 65 0.0 1.0 0.00 0.00 0.00 76
20260503051134 66 0.0 0.0 0.00 0.00 0.00 75
20260503050134 67 0.0 1.0 0.00 0.00 0.00 73
20260503045134 68 0.0 4.0 0.00 0.00 0.00 70
20260503044134 69 0.0 2.0 0.00 0.00 0.00 68
20260503043154 70 0.0 0.0 0.00 0.00 0.00 66
20260503042134 71 0.0 0.0 0.00 0.00 0.00 65
20260503041134 71 0.0 0.0 0.00 0.00 0.00 64
20260503040134 71 248 2.0 6.0 0.00 0.00 0.00 63
20260503035134 72 0.0 0.0 0.00 0.00 0.00 62
20260503034134 73 0.0 1.0 0.00 0.00 0.00 61
20260503033134 74 248 1.0 6.0 0.00 0.00 0.00 59
20260503032154 74 270 4.0 9.0 0.00 0.00 0.00 58
20260503031134 75 270 6.0 15.0 0.00 0.00 0.00 57
20260503030133 76 270 5.0 10.0 0.00 0.00 0.00 55
20260503025134 76 293 4.0 9.0 0.00 0.00 0.00 53
20260503024134 77 293 4.0 8.0 0.00 0.00 0.00 52
20260503023134 77 270 5.0 8.0 0.00 0.00 0.00 52
20260503022134 78 270 5.0 9.0 0.00 0.00 0.00 51
20260503021133 78 293 6.0 10.0 0.00 0.00 0.00 51
20260503020134 78 293 7.0 14.0 0.00 0.00 0.00 50
20260503015134 78 293 8.0 13.0 0.00 0.00 0.00 49
20260503014134 79 293 7.0 13.0 0.00 0.00 0.00 49
20260503013134 79 293 8.0 14.0 0.00 0.00 0.00 49
20260503012134 79 293 8.0 14.0 0.00 0.00 0.00 49
20260503011134 79 293 7.0 12.0 0.00 0.00 0.00 49
20260503010154 79 293 8.0 15.0 0.00 0.00 0.00 49
20260503005134 79 293 7.0 15.0 0.00 0.00 0.00 49
20260503004134 78 293 9.0 13.0 0.00 0.00 0.00 50
20260503003525 78 293 9.0 19.0 0.00 0.00 0.00 50
20260503003154 78 293 9.0 19.0 0.00 0.00 0.00 50
20260503002134 78 315 9.0 15.0 0.00 0.00 0.00 49
20260503001134 79 293 9.0 15.0 0.00 0.00 0.00 48
20260503000134 79 293 8.0 13.0 0.00 0.00 0.00 48
20260502235134 78 293 8.0 14.0 0.00 0.00 0.00 49
20260502234133 78 293 10.0 14.0 0.00 0.00 0.00 50
20260502233134 77 315 8.0 13.0 0.00 0.00 0.00 51
20260502232134 77 293 8.0 13.0 0.00 0.00 0.00 52
20260502231154 76 315 8.0 14.0 0.00 0.00 0.00 52
20260502230134 76 293 8.0 15.0 0.00 0.00 0.00 53
20260502225134 77 293 8.0 14.0 0.00 0.00 0.00 51
20260502224134 77 270 6.0 13.0 0.00 0.00 0.00 52
20260502223134 76 293 7.0 12.0 0.00 0.00 0.00 53
20260502222134 76 270 6.0 11.0 0.00 0.00 0.00 53
20260502221134 75 248 6.0 12.0 0.00 0.00 0.00 54
20260502220134 75 270 6.0 12.0 0.00 0.00 0.00 54